Wenatchee, WA

3:58 PM PDT on May 23, 2017 (GMT -0700)
Pangborn Memorial

Weather History for KEAT - January, 2013

Change the Weather History Date:

Thursday, January 17, 2013

  Actual Average Record
Temperature  
Mean Temperature 17 °F 28 °F  
Max Temperature 25 °F 33 °F 54 °F (2011)
Min Temperature 9 °F 23 °F 7 °F (1984)
Degree Days  
Heating Degree Days 48 37  
Month to date heating degree days 722 652  
Since 1 July heating degree days 3385 3750  
Cooling Degree Days 0 0  
Month to date cooling degree days 0 0  
Year to date cooling degree days 0 0  
Moisture  
Dew Point 21 °F    
Average Humidity 81    
Maximum Humidity 85    
Minimum Humidity 78    
Precipitation  
Precipitation T in 0.06 in 0.76 in (1998)
Month to date precipitation 0.91 1.14  
Year to date precipitation 0.91 1.14  
Snow  
Snow T in 0.50 in - ()
Month to date snowfall 11.0 9.7  
Since 1 July snowfall 41.3 34.6  
Snow Depth 5.00 in    
Sea Level Pressure  
Sea Level Pressure 30.55 in    
Wind  
Wind Speed 2 mph (WNW)    
Max Wind Speed 6 mph    
Max Gust Speed -    
Visibility 10 miles    
Events      
T = Trace of Precipitation, MM = Missing Value Source: NWS Daily Summary

Daily Weather History Graph

Daily Weather History Graph

Search for Another Location

Airport or City:

Trip Planner

Search our weather history database for the weather conditions in past years. The results will help you decide how hot, cold, wet, or windy it might be!

Date:

Astronomy

Jan. 17, 2013 Rise Set
Actual Time 7:41 AM PST 4:40 PM PST
Civil Twilight 7:07 AM PST 5:15 PM PST
Nautical Twilight 6:29 AM PST 5:52 PM PST
Astronomical Twilight 5:53 AM PST 6:29 PM PST
Moon 10:20 AM PST (1/17) No Moon Set
Length of Visible Light 10h 07m
Length of Day
8h 58m
Waxing Crescent, 39% of the Moon is Illuminated
Jan 17
Waxing Crescent
Jan 18
First Quarter
Jan 26
Full
Feb 3
Last Quarter
Feb 9
New

Hourly Weather History & Observations

Time (PST) Temp. Windchill Dew Point Humidity Pressure Visibility Wind Dir Wind Speed Gust Speed Precip Events Conditions
12:55 AM 27.0 °F - 21.0 °F 78% 30.63 in 10.0 mi Calm Calm - N/A   Overcast
1:55 AM 27.0 °F - 21.0 °F 78% 30.62 in 10.0 mi Calm Calm - N/A   Overcast
2:55 AM 26.1 °F 19.4 °F 21.0 °F 81% 30.63 in 10.0 mi WNW 5.8 mph - N/A   Overcast
3:55 AM 26.1 °F - 21.0 °F 81% 30.61 in 10.0 mi Calm Calm - N/A   Overcast
4:55 AM 25.0 °F 19.3 °F 19.9 °F 81% 30.60 in 10.0 mi North 4.6 mph - N/A   Overcast
5:55 AM 25.0 °F - 19.9 °F 81% 30.60 in 10.0 mi Calm Calm - N/A   Overcast
6:55 AM 25.0 °F - 19.9 °F 81% 30.60 in 10.0 mi Calm Calm - N/A   Overcast
7:55 AM 25.0 °F - 21.0 °F 85% 30.61 in 10.0 mi Calm Calm - N/A   Overcast
8:55 AM 25.0 °F - 19.9 °F 81% 30.62 in 10.0 mi Calm Calm - N/A   Overcast
9:55 AM 25.0 °F 19.3 °F 21.0 °F 85% 30.62 in 9.0 mi WNW 4.6 mph - N/A   Overcast
10:55 AM 25.0 °F 19.3 °F 21.0 °F 85% 30.60 in 10.0 mi West 4.6 mph - N/A   Overcast
11:55 AM 25.0 °F 20.7 °F 19.9 °F 81% 30.58 in 10.0 mi West 3.5 mph - N/A   Overcast
12:55 PM 26.1 °F - 21.0 °F 81% 30.55 in 10.0 mi Calm Calm - N/A   Overcast
1:55 PM 26.1 °F - 21.0 °F 81% 30.52 in 10.0 mi Calm Calm - N/A   Overcast
2:55 PM 27.0 °F - 21.0 °F 78% 30.51 in 10.0 mi Calm Calm - N/A   Overcast
3:55 PM 26.1 °F 21.9 °F 21.0 °F 81% 30.51 in 10.0 mi WSW 3.5 mph - N/A   Overcast
4:55 PM 26.1 °F 21.9 °F 21.0 °F 81% 30.51 in 10.0 mi WSW 3.5 mph - N/A   Overcast
5:55 PM 26.1 °F 20.5 °F 21.0 °F 81% 30.51 in 10.0 mi WNW 4.6 mph - N/A   Overcast
6:55 PM 26.1 °F 20.5 °F 21.0 °F 81% 30.51 in 10.0 mi WNW 4.6 mph - N/A   Overcast
7:55 PM 26.1 °F 21.9 °F 19.9 °F 78% 30.49 in 10.0 mi WSW 3.5 mph - N/A   Overcast
8:55 PM 25.0 °F 18.1 °F 19.9 °F 81% 30.46 in 10.0 mi WNW 5.8 mph - N/A   Overcast
9:55 PM 25.0 °F 19.3 °F 19.9 °F 81% 30.45 in 10.0 mi NNW 4.6 mph - N/A   Overcast
10:55 PM 25.0 °F - 19.9 °F 81% 30.43 in 10.0 mi Calm Calm - N/A   Overcast
11:55 PM 25.0 °F - 19.9 °F 81% 30.42 in 10.0 mi Calm Calm - N/A   Overcast